DW9151 Weather Reports


Display with metric or nautical units.
time (UTC)temp
F
wind
direction
speed
MPH
gust
MPH
rain 1hr
in
rain 24hr
in
rain mn
in
humidity
%
barometer
mb
20260502223621 47 17 3.0 5.0 0.00 0.00 0.00 27 1023.3
20260502222621 47 19 2.0 3.0 0.00 0.00 0.00 29 1023.5
20260502222120 47 14 2.0 3.0 0.00 0.00 0.00 28 1023.5
20260502221621 47 13 2.0 3.0 0.00 0.00 0.00 30 1023.5
20260502220620 47 23 2.0 3.0 0.00 0.00 0.00 32 1023.5
20260502220121 47 20 2.0 3.0 0.00 0.00 0.00 32 1023.6
20260502215620 47 20 2.0 3.0 0.00 0.00 0.00 31 1023.6
20260502215121 47 4 2.0 3.0 0.00 0.00 0.00 32 1023.5
20260502214621 47 18 2.0 3.0 0.00 0.00 0.00 34 1023.5
20260502214121 47 17 2.0 3.0 0.00 0.00 0.00 34 1023.5
20260502213621 47 6 2.0 3.0 0.00 0.00 0.00 34 1023.6
20260502213121 47 17 2.0 3.0 0.00 0.00 0.00 33 1023.6
20260502212621 47 20 2.0 3.0 0.00 0.00 0.00 34 1023.6
20260502212120 47 16 2.0 3.0 0.00 0.00 0.00 34 1023.7
20260502211120 47 15 2.0 3.0 0.00 0.00 0.00 35 1023.8
20260502210621 47 14 2.0 3.0 0.00 0.00 0.00 33 1023.8
20260502210122 47 19 3.0 6.0 0.00 0.00 0.00 30 1023.9
20260502205621 47 18 2.0 5.0 0.00 0.00 0.00 34 1023.8
20260502205120 47 19 2.0 3.0 0.00 0.00 0.00 36 1023.9
20260502204621 47 17 3.0 5.0 0.00 0.00 0.00 30 1023.9
20260502204121 47 17 2.0 5.0 0.00 0.00 0.00 30 1023.9
20260502203120 47 13 2.0 3.0 0.00 0.00 0.00 30 1023.9
20260502202620 47 17 2.0 3.0 0.00 0.00 0.00 33 1024.0
20260502202121 47 19 2.0 3.0 0.00 0.00 0.00 31 1023.9
20260502201120 47 17 2.0 3.0 0.00 0.00 0.00 34 1024.0
20260502200621 47 19 2.0 3.0 0.00 0.00 0.00 30 1024.0
20260502200121 47 19 2.0 3.0 0.00 0.00 0.00 31 1024.0
20260502195621 47 19 2.0 3.0 0.00 0.00 0.00 31 1024.0
20260502194620 47 18 2.0 5.0 0.00 0.00 0.00 34 1023.8
20260502193621 47 14 2.0 3.0 0.00 0.00 0.00 56 1023.8
20260502193121 47 17 3.0 6.0 0.00 0.00 0.00 47 1023.8
20260502192120 47 18 2.0 5.0 0.00 0.00 0.00 53 1023.6
20260502191621 47 16 1.0 3.0 0.00 0.00 0.00 62 1023.6
20260502191121 47 19 2.0 5.0 0.00 0.00 0.00 59 1023.6
20260502190620 47 18 3.0 3.0 0.00 0.00 0.00 58 1023.5
20260502190121 47 19 3.0 3.0 0.00 0.00 0.00 60 1023.5
20260502185620 47 18 5.0 7.0 0.00 0.00 0.00 62 1023.5
20260502185120 47 19 2.0 3.0 0.00 0.00 0.00 62 1023.5
20260502183620 47 19 3.0 5.0 0.00 0.00 0.00 62 1023.3
20260502183120 47 16 3.0 5.0 0.00 0.00 0.00 61 1023.3
20260502182620 48 17 2.0 3.0 0.00 0.00 0.00 62 1023.3
20260502182120 48 16 3.0 6.0 0.00 0.00 0.00 61 1023.2
20260502181121 48 19 2.0 3.0 0.00 0.00 0.00 62 1023.3
20260502180620 48 20 3.0 3.0 0.00 0.00 0.00 62 1023.3
20260502180120 48 20 1.0 3.0 0.00 0.00 0.00 62 1023.2
20260502164120 47 8 3.0 6.0 0.00 0.00 0.00 67 1023.3
20260502163120 47 10 3.0 8.0 0.00 0.00 0.00 67 1023.4
20260502161620 48 9 3.0 7.0 0.00 0.00 0.00 65 1023.7
20260502160620 48 6 2.0 5.0 0.00 0.00 0.00 66 1024.0
20260502160120 48 14 3.0 5.0 0.00 0.00 0.00 66 1024.0
20260502152120 49 14 5.0 7.0 0.00 0.00 0.00 65 1024.3
20260502151620 49 19 3.0 6.0 0.00 0.00 0.00 65 1024.4
20260502151120 49 20 3.0 6.0 0.00 0.00 0.00 65 1024.4
20260502150621 49 18 4.0 7.0 0.00 0.00 0.00 65 1024.4
20260502150120 49 18 3.0 6.0 0.00 0.00 0.00 64 1024.6
20260502140120 51 15 1.0 5.0 0.00 0.00 0.00 62 1025.0
20260502130620 49 18 6.0 12.0 0.00 0.00 0.00 63 1025.4
20260502130120 50 17 3.0 7.0 0.00 0.00 0.00 64 1025.4
20260502123120 50 17 5.0 8.0 0.00 0.00 0.00 62 1025.6
20260502122620 50 15 5.0 12.0 0.00 0.00 0.00 62 1025.6
20260502122120 51 16 3.0 6.0 0.00 0.00 0.00 62 1025.7
20260502121620 51 16 3.0 6.0 0.00 0.00 0.00 64 1025.7
20260502121120 50 13 3.0 12.0 0.00 0.00 0.00 65 1025.7
20260502120620 49 16 5.0 8.0 0.00 0.00 0.00 67 1025.7
20260502120120 49 14 5.0 9.0 0.00 0.00 0.00 64 1025.7
20260502115620 50 15 6.0 9.0 0.00 0.00 0.00 62 1025.8
20260502115120 49 15 4.0 10.0 0.00 0.00 0.00 63 1025.9
20260502114620 51 15 5.0 8.0 0.00 0.00 0.00 61 1026.0
20260502114120 52 16 3.0 6.0 0.00 0.00 0.00 58 1026.1
20260502113620 52 16 4.0 7.0 0.00 0.00 0.00 58 1026.1
20260502113120 53 16 3.0 6.0 0.00 0.00 0.00 60 1026.2
20260502112620 53 14 2.0 5.0 0.00 0.00 0.00 59 1026.2
20260502112120 52 18 2.0 3.0 0.00 0.00 0.00 58 1026.3
20260502111620 51 14 2.0 5.0 0.00 0.00 0.00 63 1026.4
20260502111120 51 14 2.0 5.0 0.00 0.00 0.00 60 1026.4
20260502110619 51 13 3.0 7.0 0.00 0.00 0.00 59 1026.5
20260502110120 52 15 3.0 5.0 0.00 0.00 0.00 58 1026.5
20260502105120 51 19 2.0 3.0 0.00 0.00 0.00 59 1026.6
20260502104619 51 11 3.0 5.0 0.00 0.00 0.00 61 1026.6
20260502104120 51 12 2.0 7.0 0.00 0.00 0.00 59 1026.8
20260502103620 51 15 2.0 3.0 0.00 0.00 0.00 59 1026.8
20260502103120 52 13 3.0 5.0 0.00 0.00 0.00 58 1026.8
20260502102620 51 13 1.0 5.0 0.00 0.00 0.00 59 1026.8
20260502102120 51 17 2.0 5.0 0.00 0.00 0.00 57 1026.9
20260502101620 51 15 3.0 5.0 0.00 0.00 0.00 59 1026.9
20260502101120 51 18 2.0 3.0 0.00 0.00 0.00 56 1026.8
20260502100620 52 22 2.0 3.0 0.00 0.00 0.00 58 1026.9
20260502100120 51 13 2.0 7.0 0.00 0.00 0.00 59 1027.0
20260502091120 50 4 2.0 3.0 0.00 0.00 0.00 55 1026.9
20260502090619 49 23 5.0 8.0 0.00 0.00 0.00 57 1027.0
20260502090120 50 25 2.0 3.0 0.00 0.00 0.00 57 1027.0
20260502071120 49 21 1.0 3.0 0.00 0.00 0.00 54 1027.6
20260502070620 48 18 2.0 5.0 0.00 0.00 0.00 55 1027.5
20260502070120 48 16 2.0 3.0 0.00 0.00 0.00 55 1027.6
20260502065120 48 21 1.0 3.0 0.00 0.00 0.00 56 1027.6
20260502064619 47 23 1.0 3.0 0.00 0.00 0.00 56 1027.6
20260502064122 47 19 2.0 5.0 0.00 0.00 0.00 56 1027.7
20260502063620 47 16 2.0 3.0 0.00 0.00 0.00 56 1027.6
20260502063119 46 13 2.0 5.0 0.00 0.00 0.00 56 1027.6
20260502062619 46 16 2.0 5.0 0.00 0.00 0.00 56 1027.7
20260502062120 46 15 2.0 3.0 0.00 0.00 0.00 57 1027.6
20260502061620 45 15 2.0 3.0 0.00 0.00 0.00 58 1027.6
20260502060620 45 15 3.0 5.0 0.00 0.00 0.00 58 1027.6
20260502060120 45 9 2.0 5.0 0.00 0.00 0.00 58 1027.7
20260502055619 45 8 1.0 3.0 0.00 0.00 0.00 58 1027.7
20260502055119 44 19 1.0 3.0 0.00 0.00 0.00 59 1027.8
20260502054619 43 11 2.0 5.0 0.00 0.00 0.00 61 1027.7
20260502054119 43 3 2.0 5.0 0.00 0.00 0.00 61 1027.7
20260502053619 42 20 2.0 3.0 0.00 0.00 0.00 62 1027.8
20260502053119 42 21 2.0 6.0 0.00 0.00 0.00 63 1027.8
20260502052620 41 19 3.0 7.0 0.00 0.00 0.00 64 1027.8
20260502052119 41 18 3.0 7.0 0.00 0.00 0.00 64 1027.8
20260502051120 41 15 3.0 7.0 0.00 0.00 0.00 64 1027.9
20260502050120 41 13 3.0 6.0 0.00 0.00 0.00 66 1028.0
20260502045119 40 15 3.0 6.0 0.00 0.00 0.00 67 1027.9
20260502044119 39 16 3.0 7.0 0.00 0.00 0.00 68 1027.9
20260502043619 39 18 3.0 6.0 0.00 0.00 0.00 68 1027.8
20260502043120 39 9 3.0 7.0 0.00 0.00 0.00 70 1027.8
20260502042619 38 18 3.0 6.0 0.00 0.00 0.00 70 1027.9
20260502042119 38 16 3.0 7.0 0.00 0.00 0.00 71 1027.8
20260502041120 37 16 3.0 8.0 0.00 0.00 0.00 71 1027.9
20260502040620 37 19 3.0 7.0 0.00 0.00 0.00 72 1027.9
20260502040119 37 20 3.0 7.0 0.00 0.00 0.00 72 1027.9
20260502035619 37 20 3.0 8.0 0.00 0.00 0.00 72 1027.9
20260502035120 37 18 3.0 6.0 0.00 0.00 0.00 71 1027.9
20260502034620 37 17 3.0 7.0 0.00 0.00 0.00 71 1027.9
20260502034119 37 19 3.0 7.0 0.00 0.00 0.00 70 1028.0
20260502033619 37 19 2.0 5.0 0.00 0.00 0.00 71 1028.0
20260502033119 37 18 3.0 6.0 0.00 0.00 0.00 70 1027.9
20260502032620 37 18 2.0 5.0 0.00 0.00 0.00 71 1027.9
20260502032119 37 13 2.0 5.0 0.00 0.00 0.00 71 1028.0
20260502031620 37 18 2.0 5.0 0.00 0.00 0.00 71 1027.9
20260502031119 37 18 3.0 6.0 0.00 0.00 0.00 71 1028.0
20260502030619 37 19 2.0 5.0 0.00 0.00 0.00 71 1028.1
20260502030119 37 21 2.0 6.0 0.00 0.00 0.00 71 1028.1
20260502025620 37 21 3.0 6.0 0.00 0.00 0.00 71 1028.2
20260502025119 37 18 3.0 5.0 0.00 0.00 0.00 72 1028.1
20260502024619 37 17 3.0 5.0 0.00 0.00 0.00 71 1028.3
20260502024119 37 21 2.0 5.0 0.00 0.00 0.00 71 1028.3
20260502023619 37 18 2.0 3.0 0.00 0.00 0.00 71 1028.3
20260502023119 37 21 1.0 3.0 0.00 0.00 0.00 70 1028.4
20260502022119 38 22 2.0 5.0 0.00 0.00 0.00 69 1028.4
20260502021619 38 21 2.0 5.0 0.00 0.00 0.00 69 1028.5
20260502021119 38 19 2.0 6.0 0.00 0.00 0.00 68 1028.6
20260502020619 38 18 2.0 3.0 0.00 0.00 0.00 67 1028.6
20260502020120 38 18 2.0 5.0 0.00 0.00 0.00 67 1028.6
20260502015619 38 17 2.0 3.0 0.00 0.00 0.00 66 1028.6
20260502015119 39 19 2.0 3.0 0.00 0.00 0.00 66 1028.6
20260502014619 39 21 3.0 5.0 0.00 0.00 0.00 65 1028.5
20260502014119 40 17 1.0 3.0 0.00 0.00 0.00 64 1028.5
20260502013619 40 18 2.0 3.0 0.00 0.00 0.00 63 1028.6
20260502013119 40 19 2.0 3.0 0.00 0.00 0.00 62 1028.6
20260502012621 40 19 1.0 3.0 0.00 0.00 0.00 63 1028.7
20260502012119 40 19 2.0 3.0 0.00 0.00 0.00 63 1028.8
20260502011119 40 19 2.0 3.0 0.00 0.00 0.00 63 1028.9
20260502010619 40 19 2.0 3.0 0.00 0.00 0.00 63 1028.9
20260502005619 40 18 2.0 3.0 0.00 0.00 0.00 63 1029.0
20260502005119 40 18 3.0 3.0 0.00 0.00 0.00 63 1029.0
20260502004619 40 18 2.0 3.0 0.00 0.00 0.00 62 1029.0
20260502004119 40 18 2.0 5.0 0.00 0.00 0.00 62 1029.0
20260502003619 40 17 3.0 5.0 0.00 0.00 0.00 62 1029.1
20260502003119 41 18 2.0 5.0 0.00 0.00 0.00 62 1029.1
20260502002619 41 19 3.0 5.0 0.00 0.00 0.00 62 1029.2
20260502001619 41 18 5.0 6.0 0.00 0.00 0.00 62 1029.3
20260502001119 41 17 3.0 6.0 0.00 0.00 0.00 62 1029.3
20260502000619 41 17 5.0 6.0 0.00 0.00 0.00 62 1029.3
20260501235619 41 19 2.0 3.0 0.00 0.00 0.00 61 1029.3
20260501235119 41 17 2.0 3.0 0.00 0.00 0.00 61 1029.4
20260501234119 41 15 4.0 6.0 0.00 0.00 0.00 60 1029.4
20260501233619 41 16 3.0 3.0 0.00 0.00 0.00 60 1029.5
20260501233119 41 17 3.0 5.0 0.00 0.00 0.00 60 1029.5
20260501232619 41 17 3.0 5.0 0.00 0.00 0.00 60 1029.5
20260501231619 41 17 2.0 3.0 0.00 0.00 0.00 60 1029.6
20260501230619 41 17 5.0 6.0 0.00 0.00 0.00 60 1029.7
20260501230119 41 16 2.0 3.0 0.00 0.00 0.00 61 1029.7
20260501225619 41 16 3.0 5.0 0.00 0.00 0.00 61 1029.8
20260501225119 41 17 2.0 3.0 0.00 0.00 0.00 65 1029.8
20260501224619 41 16 3.0 3.0 0.00 0.00 0.00 64 1029.8